Regional Weather Roundup
Issued by NWS Memphis, TN

Home | Current Version | Previous Version | Text Only | Print | Product List | Glossary On
Versions: 1 2 3 4 5 6 7 8 9 10 11 12 13 14 15 16 17 18 19 20 21 22 23 24 25 26 27 28 29 30 31 32 33 34 35 36 37 38 39 40 41 42 43 44 45 46 47 48 49 50
000
ASUS44 KMEG 030110
RWRMEG
MEMPHIS CWA HOURLY WEATHER ROUNDUP
NATIONAL WEATHER SERVICE MEMPHIS TN
800 PM CDT WED SEP 02 2015

...WEST TENNESSEE...

CITY           SKY/WX    TMP DP  RH WIND       PRES   REMARKS
MEMPHIS INTL   PTCLDY    79  72  79 S3        29.99F
NWS MEMPHIS      N/A    N/A N/A N/A MISG        N/A
JACKSON        CLEAR     78  73  84 CALM      30.00F
LEXINGTON      CLEAR     75  73  94 E3        30.00S
DYERSBURG      CLEAR     79  73  83 CALM      29.99S
UNION CITY     CLEAR     79  72  78 CALM      29.98S
PARIS          CLEAR     75  70  83 CALM      30.01S


...EASTERN ARKANSAS...

CITY           SKY/WX    TMP DP  RH WIND       PRES   REMARKS
JONESBORO      CLEAR     76  72  87 CALM      29.98S
WEST MEMPHIS   PTCLDY    75  74  96 S5        29.97F
BATESVILLE     CLEAR     82  70  65 E3        29.98S
NEWPORT        CLEAR     81  73  76 E6        29.98F
WALNUT RIDGE   CLEAR     82  70  65 CALM      29.98S
BLYTHEVILLE    CLEAR     83  72  69 CALM      29.98S
SEARCY         CLEAR     82  71  69 SW6       29.99S
STUTTGART      CLEAR     81  66  61 SW6       29.98F
PINE BLUFF     PTCLDY    75  72  90 CALM      29.98F
MONTICELLO     PTCLDY    75  75 100 CALM      29.98F


...NORTH MISSISSIPPI...

CITY           SKY/WX    TMP DP  RH WIND       PRES   REMARKS
TUPELO         MOCLDY    79  73  82 CALM      29.99F
OXFORD         MOCLDY    75  72  88 CALM      30.02F
OLIVE BRANCH   PTCLDY    79  77  94 CALM      30.00S
CLARKSDALE     CLEAR     79  73  83 E3        30.00S
CORINTH        MOCLDY    79  73  83 CALM      30.00R
GREENWOOD      CLEAR     76  71  85 CALM      29.99S
STARKVILLE     FAIR      79  72  78 CALM      30.00S
GOLDEN TRIANGL MOCLDY    81  72  74 N5        29.99S


...SOUTHEAST MISSOURI...

CITY           SKY/WX    TMP DP  RH WIND       PRES   REMARKS
WEST PLAINS    PTCLDY    80  67  64 SE3       30.03S
POPLAR BLUFF   PTCLDY    77  73  87 CALM      29.97S
CAPE GIRARDEAU CLEAR     79  70  74 S5        29.98S


...NORTHWEST ALABAMA...

CITY           SKY/WX    TMP DP  RH WIND       PRES   REMARKS
MUSCLE SHOALS  CLOUDY    79  72  79 S3        30.02S


...MIDDLE TENNESSEE...

CITY           SKY/WX    TMP DP  RH WIND       PRES   REMARKS
NASHVILLE      CLOUDY    85  67  54 SW3       30.01S
CLARKSVILLE    CLEAR     80  68  66 N3        30.00S
COLUMBIA       CLEAR     81  77  89 CALM      30.00F


...WESTERN KENTUCKY...

CITY           SKY/WX    TMP DP  RH WIND       PRES   REMARKS
PADUCAH        CLEAR     77  69  76 CALM      29.99R
FORT CAMPBELL  CLEAR     80  69  68 N3        30.00S


...CENTRAL ARKANSAS...

CITY           SKY/WX    TMP DP  RH WIND       PRES   REMARKS
LITTLE ROCK    PTCLDY    80  69  69 CALM      29.98F


SKY/WX REPORTED AS FAIR MEANS FEW OR NO CLOUDS BELOW
12 THOUSAND FEET.



USA.gov is the U.S. government's official web portal to all federal, state and local government web resources and services.